DW0265 Weather Reports


time (UTC)temp
F
wind
direction
speed
knots
gust
knots
rain 1hr
in
rain 24hr
in
rain mn
in
humidity
%
barometer
mb
20260507093004 56 180 0.0 2.6 0.00 0.00 0.00 62 1016.6
20260507090504 55 162 0.0 0.9 0.00 0.00 0.00 67 1016.6
20260507083503 54 187 0.0 2.6 0.00 0.00 0.00 71 1016.7
20260507083004 54 101 0.0 2.6 0.00 0.00 0.00 72 1016.7
20260507080004 53 177 0.9 5.2 0.00 0.00 0.00 76 1016.7
20260507073504 51 187 0.9 4.3 0.00 0.00 0.00 81 1016.5
20260507073004 50 174 0.9 6.1 0.00 0.00 0.00 84 1016.6
20260507063003 44 15 0.0 0.0 0.00 0.00 0.00 93 1016.4
20260507053503 41 15 0.0 0.0 0.00 0.00 0.00 91 1016.1
20260507050004 41 15 0.0 0.0 0.00 0.00 0.00 89 1016.1
20260507043504 41 15 0.0 0.0 0.00 0.00 0.00 89 1016.0
20260507040004 42 15 0.0 0.0 0.00 0.00 0.00 88 1015.9
20260507033005 43 15 0.0 0.0 0.00 0.00 0.00 87 1015.9
20260507030506 44 15 0.0 0.0 0.00 0.00 0.00 86 1015.9
20260507023005 45 15 0.0 0.0 0.00 0.00 0.00 85 1015.9
20260507020505 46 15 0.0 0.0 0.00 0.00 0.00 85 1015.7
20260507020005 46 15 0.0 0.0 0.00 0.00 0.00 85 1015.6
20260507013506 46 15 0.0 0.0 0.00 0.00 0.00 84 1015.6
20260507013005 46 15 0.0 0.0 0.00 0.00 0.00 84 1015.7
20260507010005 46 15 0.0 0.0 0.00 0.00 0.00 82 1015.6
20260507003505 47 15 0.0 0.0 0.00 0.00 0.00 80 1015.5
20260507000505 49 15 0.0 0.0 0.00 0.00 0.00 77 1015.6
20260506233005 50 15 0.0 0.0 0.00 0.00 0.00 74 1015.4
20260506230505 51 15 0.0 0.0 0.00 0.00 0.00 72 1015.4
20260506230005 51 15 0.0 0.0 0.00 0.00 0.00 72 1015.4
20260506223505 51 15 0.0 0.0 0.00 0.00 0.00 71 1015.4
20260506220506 52 15 0.0 0.0 0.00 0.00 0.00 70 1015.1
20260506220005 52 15 0.0 0.0 0.00 0.00 0.00 70 1015.2
20260506213505 52 15 0.0 0.0 0.00 0.00 0.00 68 1015.2
20260506210505 52 17 0.0 0.9 0.00 0.00 0.00 65 1015.0
20260506210004 52 31 0.0 0.0 0.00 0.00 0.00 64 1014.9
20260506190505 55 46 0.0 0.9 0.00 0.00 0.00 59 1014.0
20260506183505 56 40 0.0 0.0 0.00 0.00 0.00 58 1013.8
20260506180006 56 343 0.9 7.0 0.00 0.00 0.00 57 1013.4
20260506173504 56 328 1.7 2.6 0.00 0.00 0.00 60 1013.3
20260506170504 57 15 0.0 0.0 0.00 0.00 0.00 58 1013.2
20260506170005 57 15 0.0 2.6 0.00 0.00 0.00 58 1013.2
20260506163504 56 342 0.0 0.0 0.00 0.00 0.00 58 1013.2
20260506153505 56 323 0.0 1.7 0.00 0.00 0.00 60 1013.4
20260506153004 56 10 0.0 7.0 0.00 0.00 0.00 60 1013.3
20260506150505 57 78 0.0 2.6 0.00 0.00 0.00 58 1013.3
20260506150005 58 352 1.7 7.0 0.00 0.00 0.00 58 1013.3
20260506140004 59 35 0.0 7.8 0.00 0.00 0.00 54 1013.2
20260506123504 58 42 0.0 2.6 0.00 0.00 0.00 54 1013.2
20260506120005 58 341 3.5 12.2 0.00 0.00 0.00 51 1013.2
20260506113504 59 316 0.9 7.8 0.00 0.00 0.00 52 1013.3
20260506113004 59 34 0.0 7.8 0.00 0.00 0.00 53 1013.3
20260506110504 58 357 1.7 10.4 0.00 0.00 0.00 54 1013.5
20260506110004 57 347 0.9 12.2 0.00 0.00 0.00 56 1013.4
20260506100504 54 347 2.6 12.2 0.00 0.00 0.00 56 1013.4